Regional Weather Roundup
Issued by NWS

Home | Current Version | Previous Version | Graphics & Text | Print | Product List | Glossary On
Versions: 1 2 3 4 5 6 7 8 9 10 11 12 13 14 15 16 17 18 19 20 21 22 23 24 25 26 27 28 29 30 31 32 33 34 35 36 37 38 39 40 41 42 43 44 45 46 47 48 49 50
963
ASUS43 KLMK 201510
RWRKY
KENTUCKY REGIONAL WEATHER ROUNDUP
NATIONAL WEATHER SERVICE LOUISVILLE KY
1100 AM EDT WED SEP 20 2017

NOTE "FAIR" INDICATES FEW OR NO CLOUDS BELOW 12,000 FEET
WITH NO SIGNIFICANT WEATHER AND/OR OBSTRUCTIONS TO VISIBILITY.

KYZ001>023-026-027-061>063-070>075-201600-
WESTERN AND SOUTH CENTRAL KENTUCKY

CITY           SKY/WX    TMP DP  RH WIND       PRES   REMARKS
PADUCAH        FAIR      82  72  71 VRB6      29.99S
HENDERSON      FAIR      82  73  74 MISG      30.01S
OWENSBORO      FAIR      80  72  76 S9        30.03R
HOPKINSVILLE   FAIR      80  71  72 SW5       30.03S
BOWLING GREEN  PTSUNNY   76  71  85 SW5       30.05S
GLASGOW        PTSUNNY   78  69  74 W3        30.07S
$$

KYZ024-025-028>034-038-045-046-053-201600-
NORTH CENTRAL KENTUCKY

CITY           SKY/WX    TMP DP  RH WIND       PRES   REMARKS
LOUISVILLE/SDF FAIR      77  70  79 S5        30.04R
LOUISVILLE/LOU FAIR      77  72  84 CALM      30.04S
FORT KNOX      FAIR      75  75 100 S5        30.04R
$$

KYZ035>037-039>044-047>052-055>060-089>105-201600-
NORTHEAST KENTUCKY

CITY           SKY/WX    TMP DP  RH WIND       PRES   REMARKS
LEXINGTON      FAIR      76  70  82 SE5       30.08S
COVINGTON      FAIR      75  73  93 VRB3      30.05S
FRANKFORT      FAIR      76  68  76 CALM      30.05S
$$

KYZ054-064>069-076>088-106>120-201600-
SOUTHEAST KENTUCKY

CITY           SKY/WX    TMP DP  RH WIND       PRES   REMARKS
JACKSON        FAIR      73  68  84 CALM      30.10S
LONDON         FAIR      75  66  73 VRB3      30.10S
SOMERSET       FAIR      73  64  73 CALM      30.11R
MIDDLESBORO    PTSUNNY   69  66  91 CALM      30.12F
MONTICELLO     FAIR      77  68  73 NE7       30.11S
$$





USA.gov is the U.S. government's official web portal to all federal, state and local government web resources and services.